Meteo Giornale » Osservazioni meteo Stati Uniti (USA) » New York City Central Park

ore: 11:51 - Osservazioni Meteo New York City Central Park
Lat. 40° 47' N Lon. 73° 58' W Alt. 47 metri s.l.m.

coperto America/New_York

4 °C

Coperto

Temp. 24 Ore

3 °C

16 °C

Est

9.3 Km/h

Dew point 1 °C

Umidità 80 %

Visibilità  10 Km

Il sole sorge alle ore 06:45

Il sole tramonta alle ore 19:16

Data e Ora Cielo e Fenomeni T °C DP °C Um. % Pres. hPa Vis. km Vento km/h
Oggi h: 11:51 coperto Coperto 4 1 80 1032 10 E 9.3
Oggi h: 10:51 coperto Coperto 4 0 75 1032 10 E/NE 22.2
Oggi h: 10:35 coperto Coperto 4 1 80 1032 10 E 14.8
Oggi h: 09:51 coperto Coperto 3 1 86 1032 10 E 9.3
Oggi h: 08:51 coperto Coperto 3 0 80 1031 10 E/NE 20.3
Oggi h: 08:25 coperto Coperto 3 0 80 1031 10 E 16.7
Oggi h: 07:51 coperto Coperto 3 -1 74 1031 10 E/NE 22.2
Oggi h: 07:49 coperto Coperto 3 -1 74 1031 10 E 24
Oggi h: 06:51 coperto Coperto 3 -1 74 1030 10 E/NE 20.3
Oggi h: 05:51 coperto Coperto 3 1 86 1030 10 E/NE 22.2
Oggi h: 05:23 coperto Coperto 3 1 86 1030 10 E/NE 14.8
Oggi h: 05:10 coperto Coperto 3 1 86 1030 10 E 20.3
Oggi h: 04:51 coperto_pioggia Pioggia Debole 3 2 93 1030 13 N 11.1
Oggi h: 04:17 coperto_pioggia Pioggia Debole 3 2 93 1030 14 E/NE 14.8
Oggi h: 04:01 coperto_pioggia Pioggia Debole Foschia 3 2 93 1030 6 E/NE 18.5
Oggi h: 03:51 coperto_pioggia Pioggia Foschia 3 2 93 1030 3 E 14.8
Oggi h: 03:13 coperto_pioggia Pioggia Debole Foschia 4 2 86 1030 10 E/NE 18.5
Oggi h: 02:51 coperto_pioggia Pioggia Debole 4 2 86 1030 10 N 11.1
Oggi h: 01:51 coperto Coperto 6 1 70 1030 10 E 14.8
Oggi h: 01:21 coperto Coperto 6 1 70 1030 10 E/NE 13
Oggi h: 00:51 coperto Coperto 6 1 70 1030 10 E 22.2
Oggi h: 00:39 coperto Coperto 6 2 75 1030 10 E/NE 16.7
Ieri h: 23:51 coperto Coperto 6 2 75 1030 10 E/NE 14.8
Ieri h: 23:09 coperto Coperto 7 3 75 1029 10 E/NE 16.7
Ieri h: 22:51 coperto Coperto 7 4 81 1029 10 N 11.1
Ieri h: 21:51 coperto Coperto 7 5 87 1028 10 E/NE 13
Ieri h: 20:51 coperto Coperto 7 4 81 1028 10 N 9.3
Ieri h: 20:47 coperto Coperto 7 4 81 1028 10 NE 14.8
Ieri h: 20:19 coperto Coperto 7 4 81 1028 10 NE 18.5
Ieri h: 19:51 coperto Coperto 8 5 81 1027 10 N 14.8
Ieri h: 18:51 coperto Coperto 10 4 66 1026 10 N 5.5
Ieri h: 17:51 coperto Coperto 9 4 70 1026 10 NE 7.4
Ieri h: 16:51 nuvoloso Nuvoloso 11 4 61 1025 10 NE 16.7
Ieri h: 15:51 molto_nuvoloso Molto Nuvoloso 12 5 62 1024 14 N 9.3
Ieri h: 14:51 poco_nuvoloso Poco Nuvoloso 14 5 54 1022 10 E/SE 14.8
Ieri h: 13:51 poco_nuvoloso Poco Nuvoloso 16 4 44 1023 14 E/NE 9.3
Ieri h: 12:51 sereno Sereno 16 3 41 1022 14 E/NE 9.3